TimeCEST,TemperatureF,Dew PointF,Humidity,Sea Level PressureIn,VisibilityMPH,Wind Direction,Wind SpeedMPH,Gust SpeedMPH,PrecipitationIn,Events,Conditions,WindDirDegrees,DateUTC
12:00 AM,68.0,64.4,88,30.09,-9999.0,SSW,6.9,-,N/A,,Clear,210,2013-04-17 22:00:00
12:30 AM,68.0,64.4,88,30.09,-9999.0,SSW,9.2,-,N/A,,Clear,200,2013-04-17 22:30:00
1:00 AM,66.2,62.6,88,30.09,-9999.0,South,5.8,-,N/A,,Clear,190,2013-04-17 23:00:00
4:30 AM,62.6,60.8,94,30.09,5.0,Calm,Calm,-,N/A,,Unknown,0,2013-04-18 02:30:00
5:00 AM,60.8,59.0,94,30.09,5.0,Calm,Calm,-,N/A,,Unknown,0,2013-04-18 03:00:00
6:00 AM,60.8,59.0,94,30.09,5.0,Calm,Calm,-,N/A,,Unknown,0,2013-04-18 04:00:00
6:30 AM,59.0,59.0,100,30.09,4.3,Calm,Calm,-,N/A,,Unknown,0,2013-04-18 04:30:00
7:00 AM,59.0,57.2,94,30.09,4.3,NE,1.2,-,N/A,,Unknown,40,2013-04-18 05:00:00
7:30 AM,59.0,59.0,100,30.09,4.3,Calm,Calm,-,N/A,,Unknown,0,2013-04-18 05:30:00
8:00 AM,59.0,59.0,100,30.09,4.3,Calm,Calm,-,N/A,,Unknown,0,2013-04-18 06:00:00
8:30 AM,59.0,59.0,100,30.09,3.7,Calm,Calm,-,N/A,,Unknown,0,2013-04-18 06:30:00
9:00 AM,62.6,60.8,94,30.09,3.1,Variable,1.2,-,N/A,,Mist,0,2013-04-18 07:00:00
9:30 AM,64.4,62.6,94,30.09,3.1,ENE,4.6,-,N/A,,Mist,60,2013-04-18 07:30:00
10:00 AM,68.0,62.6,83,30.09,3.7,NE,6.9,-,N/A,,Unknown,50,2013-04-18 08:00:00
10:30 AM,69.8,62.6,78,30.09,5.0,NE,5.8,-,N/A,,Unknown,40,2013-04-18 08:30:00
11:00 AM,71.6,60.8,69,30.09,5.6,NE,6.9,-,N/A,,Unknown,50,2013-04-18 09:00:00
11:30 AM,71.6,60.8,69,30.12,-9999.0,NNE,4.6,-,N/A,,Clear,30,2013-04-18 09:30:00
12:30 PM,77.0,59.0,54,30.09,-9999.0,NE,3.5,-,N/A,,Clear,50,2013-04-18 10:30:00
1:00 PM,78.8,59.0,51,30.09,-9999.0,NE,1.2,-,N/A,,Clear,50,2013-04-18 11:00:00
1:30 PM,80.6,62.6,54,30.09,-9999.0,Calm,Calm,-,N/A,,Clear,0,2013-04-18 11:30:00
2:00 PM,82.4,60.8,48,30.06,-9999.0,ESE,1.2,-,N/A,,Clear,120,2013-04-18 12:00:00
2:30 PM,82.4,59.0,45,30.06,-9999.0,NNE,1.2,-,N/A,,Clear,20,2013-04-18 12:30:00
3:00 PM,84.2,62.6,48,30.06,-9999.0,SW,2.3,-,N/A,,Clear,230,2013-04-18 13:00:00
3:30 PM,84.2,59.0,42,30.04,-9999.0,Calm,Calm,-,N/A,,Clear,0,2013-04-18 13:30:00
4:00 PM,86.0,60.8,43,30.04,-9999.0,Variable,2.3,-,N/A,,Clear,0,2013-04-18 14:00:00
4:30 PM,86.0,59.0,40,30.04,-9999.0,SSE,2.3,-,N/A,,Clear,150,2013-04-18 14:30:00
5:00 PM,86.0,60.8,43,30.01,-9999.0,SSW,5.8,-,N/A,,Clear,210,2013-04-18 15:00:00
5:30 PM,86.0,59.0,40,30.01,-9999.0,SW,4.6,-,N/A,,Clear,220,2013-04-18 15:30:00
6:00 PM,86.0,60.8,43,30.01,-9999.0,SW,5.8,-,N/A,,Clear,220,2013-04-18 16:00:00
6:30 PM,84.2,64.4,51,30.01,-9999.0,SW,8.1,-,N/A,,Clear,220,2013-04-18 16:30:00
7:00 PM,84.2,64.4,51,30.01,-9999.0,SW,8.1,-,N/A,,Clear,220,2013-04-18 17:00:00
7:30 PM,84.2,64.4,51,30.01,-9999.0,SW,6.9,-,N/A,,Clear,220,2013-04-18 17:30:00
8:00 PM,82.4,66.2,58,30.01,-9999.0,SW,11.5,-,N/A,,Clear,220,2013-04-18 18:00:00
8:30 PM,80.6,68.0,65,30.01,-9999.0,SW,9.2,-,N/A,,Clear,220,2013-04-18 18:30:00
9:00 PM,77.0,53.6,44,30.01,-9999.0,West,9.2,-,N/A,,Clear,260,2013-04-18 19:00:00
9:30 PM,77.0,53.6,44,30.04,-9999.0,West,6.9,-,N/A,,Clear,260,2013-04-18 19:30:00
10:00 PM,77.0,53.6,44,30.04,-9999.0,SW,4.6,-,N/A,,Clear,230,2013-04-18 20:00:00
10:30 PM,75.2,57.2,53,30.04,-9999.0,Variable,2.3,-,N/A,,Clear,0,2013-04-18 20:30:00
11:00 PM,71.6,57.2,60,30.04,-9999.0,West,3.5,-,N/A,,Clear,280,2013-04-18 21:00:00
11:30 PM,69.8,57.2,64,30.04,-9999.0,Variable,2.3,-,N/A,,Clear,0,2013-04-18 21:30:00